Regional Weather Roundup
Issued by NWS

Home | Current Version | Previous Version | Graphics & Text | Print | Product List | Glossary On
Versions: 1 2 3 4 5 6 7 8 9 10 11 12 13 14 15 16 17 18 19 20 21 22 23 24 25 26 27 28 29 30 31 32 33 34 35 36 37 38 39 40 41 42 43 44 45 46 47 48 49 50
000
ASUS45 KBOU 211107
RWRCO

WEATHER ROUNDUP FOR COLORADO
NATIONAL WEATHER SERVICE DENVER/BOULDER CO
400 AM MST FRI NOV 21 2014

NOTE: "FAIR" INDICATES FEW OR NO CLOUDS BELOW 12000 FEET WITH NO
SIGNIFICANT WEATHER AND/OR OBSTRUCTIONS TO VISIBILITY.

COZ001>005-013-030-031-211200-
...NORTHWEST COLORADO...

CITY           SKY/WX    TMP DP  RH WIND       PRES   REMARKS
CRAIG          CLEAR     21  17  84 S5        30.04S WCI  15
HAYDEN         PTCLDY    28  18  64 E10       30.03F WCI  19
MEEKER         CLEAR     26  21  81 CALM      30.04F
MOUNT WERNER   NOT AVBL
STEAMBOAT SPGS CLOUDY    24  18  80 CALM      30.04F
WALDEN         MOCLDY    23  14  68 SE6       30.02F WCI  16
$$

COZ006>008-011-211200-
...WEST CENTRAL VALLEYS...

CITY           SKY/WX    TMP DP  RH WIND       PRES   REMARKS
GRAND JUNCTION CLEAR     23  15  71 E6        30.06S WCI  16
MONTROSE       CLEAR     21  17  84 S8        30.08F WCI  11
EAGLE          CLOUDY    27  23  86 CALM      30.10S
RIFLE          CLEAR     28  20  71 SW3       30.07F
DELTA          CLEAR     27  16  64 NE5       30.07F WCI  21
NUCLA          CLEAR     27  21  80 CALM      30.09F
$$

COZ017>023-064>068-211200-
...SOUTHWEST COLORADO...

CITY           SKY/WX    TMP DP  RH WIND       PRES   REMARKS
DURANGO        PTCLDY    19  15  84 NE5       30.06F WCI  12
CORTEZ         CLEAR     20  16  84 CALM      30.05F
PAGOSA SPRINGS PTCLDY    20  13  75 CALM      30.08F
TELLURIDE      PTCLDY    24  17  73 SE7       30.09F WCI  16
WOLF CREEK PAS PTCLDY    18  12  79 SW13      30.10S WCI   4
$$

COZ009-010-012-014-032>034-037-058>063-211200-
...CENTRAL COLORADO...

CITY           SKY/WX    TMP DP  RH WIND       PRES   REMARKS
ASPEN          CLOUDY    25  17  72 S3        30.04F
BUENA VISTA    NOT AVBL
COPPER MTN     PTCLDY    21  10  63 SW9       30.07S WCI  11
BERTHOUD PASS  CLOUDY    12   9  85 NW23      30.05F WCI  -7
COTTONWOOD PAS MOCLDY    32  16  51 N7        30.03F WCI  26
GUNNISON       PTCLDY    12   7  79 CALM      30.13S
KREMMLING      CLOUDY    19  14  79 CALM      30.09F
LEADVILLE      PTCLDY    16   7  67 VRB5      30.04F WCI   9
MONARCH PASS   CLEAR     16  12  86 W37       30.14F WCI  -6
SALIDA         PTCLDY    31  14  49 N8        30.10S WCI  23
SUNLIGHT       CLOUDY    23  19  86 CALM      30.09S
WILKERSON PASS PTCLDY    21   5  49 NW7G17    30.05F WCI  13
$$

COZ069>075-211200-
...SAN LUIS VALLEY/SANGRE DE CRISTO MOUNTAINS...

CITY           SKY/WX    TMP DP  RH WIND       PRES   REMARKS
ALAMOSA        PTCLDY     6   2  83 SE5       30.07S WCI  -3
LA VETA PASS   PTCLDY    23  12  63 S12G25    30.03F WCI  12
SAGUACHE       PTCLDY    23  14  68 NW13      30.07F WCI  11
$$

COZ035-036-038>040-211200-
...NORTHERN COLORADO FRONT RANGE...

CITY           SKY/WX    TMP DP  RH WIND       PRES   REMARKS
DENVER INTL AP PTCLDY    30  23  75 S6        29.94F WCI  24
DMNS CITY PARK   N/A     33  21  60 S7        29.96S WCI  27
AURORA         PTCLDY    33  20  59 S9        29.96S WCI  25
FRONT RANGE AP CLEAR     32  27  80 SW3       29.95F
ERIE MUNI ARPT CLEAR     24  21  88 SW3       29.95S
BOULDER MUN AP CLEAR     34  21  60 SW5       29.94S WCI  30
CENTENNIAL     PTCLDY    30  21  69 CALM      29.95F
BROOMFIELD     CLEAR     36  19  51 W5        29.95S
FORT COLLINS   PTCLDY    30  25  80 CALM      29.95F
LONGMONT       PTCLDY    27  22  82 CALM      29.96F
$$

COZ041-046-047-076>085-087-088-211200-
...PIKES PEAK/PALMER DIVIDE AND SOUTHERN FOOTHILLS...

CITY           SKY/WX    TMP DP  RH WIND       PRES   REMARKS
COLO. SPRINGS  PTCLDY    25  18  74 NE12      29.97F WCI  14
A. F. ACADEMY  PTCLDY    24  14  64 SW3       29.96F
ELLICOTT       PTCLDY    25  19  78 NE3       29.96F
FALCON         NOT AVBL
FORT CARSON    PTCLDY    29  20  68 NW10      29.95F WCI  20
LIMON          PTCLDY    20  18  92 CALM      29.97F
MONUMENT HILL  PTCLDY    28  14  54 SW7       29.97S WCI  21
TRINIDAD       CLEAR     30  19  63 W9        29.98S WCI  22
$$

COZ042>045-048>051-090-091-211200-
...NORTHEAST COLORADO...

CITY           SKY/WX    TMP DP  RH WIND       PRES   REMARKS
GREELEY ARPT   PTCLDY    23  14  68 CALM      29.96S
AKRON          MOCLDY    35  22  58 SW10      29.94F WCI  27
BURLINGTON     MOCLDY    31  24  75 S9        30.00S WCI  23
WRAY           CLOUDY    32  22  69 CALM      29.97F
STERLING       MOCLDY    28  21  74 CALM      29.95S
HOLYOKE        CLOUDY    34  23  64 S8        29.96F WCI  27
FORT MORGAN    CLOUDY    29  22  75 NW3       29.95S
$$

COZ086-089-092>099-211200-
...SOUTHEAST COLORADO...

CITY           SKY/WX    TMP DP  RH WIND       PRES   REMARKS
PUEBLO         CLEAR     27  24  89 W5        29.97F WCI  22
LA JUNTA       PTCLDY    27  24  89 SW6       29.97F WCI  20
LAMAR          PTCLDY    32  28  85 SE7       29.98F WCI  26
SPRINGFIELD      N/A     25  23  92 SW7       29.99F WCI  17
$$


USA.gov is the U.S. government's official web portal to all federal, state and local government web resources and services.